Tracking 22879 objects as of 22-Apr-2021
HD Live streaming from Space Station
objects crossing your sky now

COSMOS 505

Track COSMOS 505 now!
10-day predictions
COSMOS 505 is classified as:


NORAD ID: 6118
Int'l Code: 1972-057B
Perigee: 1,358.7 km
Apogee: 1,503.3 km
Inclination: 74.0 °
Period: 114.3 minutes
Semi major axis: 7801 km
RCS: 0.7076 m2 (medium)
Launch date: July 20, 1972
Source: Commonwealth of Independent States (former USSR) (CIS)
Launch site: PLESETSK MISSILE AND SPACE COMPLEX (PKMTR)
aabbcc
Your satellite tracking list
Your tracking list is empty




NASA's NSSDC Master Catalog

Two Line Element Set (TLE):
1 06118U 72057B   21111.81926227 -.00000009  00000-0  44775-4 0  9991
2 06118  74.0273 241.3201 0092720 207.0266 227.1562 12.59777793242018
Source of the keplerian elements: AFSPC